P/2002 JN16 ( LINEAR ) 2009

Japanese version
Home page
Total 5,708 html files since Dec. 4, 1995
Updated on April 12, 2008

---------------------------------------------------------------------

* Profile

* Orbital Elements

The following orbital elements are taken from MPC 56802:

Epoch 2009 Jan. 9.0 TT = JDT 2454840.5
T 2009 Jan. 25.0964 TT                                  MPC
q   1.783700             (2000.0)            P               Q
n   0.1518876      Peri.   39.6988      -0.0143593      +0.9883171
a   3.479001       Node   230.0336      -0.9603232      -0.0559008
e   0.487295       Incl.   11.4187      -0.2785195      +0.1417899
P   6.49
From 153 observations 2002 Apr. 14-Sept. 1, mean residual 0".6.

* Magnitudes Graph

        m1 = 14.5 + 5 log d + 10.0 log r

---------------------------------------------------------------------

The orbital elements are published at the MPC Ephemerides and Orbital Elements.
The magnitudes graphs are made with Comet for Windows.

---------------------------------------------------------------------

Copyright(C) 1995-2007 Seiichi Yoshida (comet@aerith.net). All rights reserved.